BEL23D GOBD-GBYD

Flight info

Callsign BEL23D
Flight time 0h 28m
Altitude 15000
Route BIDAV1B BIDAV DCT VOKSI
Aircraft A333/H-SDE3GHIJ2J3J5M1RVWXY/LB2D1

Departure

Time 2026-04-29 18:31
Airport Blaise Diagne International Airport (GOBD)

Arrival

Time 2026-04-29 18:59
Airport Banjul International Airport (GBYD)
Time Latitude Longitude Altitude Speed Heading
2026-04-29 18:19 14.67220 -17.06841 305 ft 0 kts 147°
2026-04-29 18:20 14.67223 -17.06843 305 ft 2 kts 147°
2026-04-29 18:20 14.67236 -17.06852 304 ft 2 kts 147°
2026-04-29 18:20 14.67248 -17.06860 304 ft 2 kts 147°
2026-04-29 18:20 14.67261 -17.06868 304 ft 2 kts 147°
2026-04-29 18:21 14.67274 -17.06877 304 ft 2 kts 147°
2026-04-29 18:21 14.67286 -17.06885 304 ft 2 kts 147°
2026-04-29 18:21 14.67299 -17.06894 304 ft 2 kts 147°
2026-04-29 18:21 14.67312 -17.06902 303 ft 2 kts 147°
2026-04-29 18:22 14.67325 -17.06911 303 ft 2 kts 147°
2026-04-29 18:22 14.67337 -17.06919 303 ft 2 kts 147°
2026-04-29 18:22 14.67350 -17.06928 303 ft 2 kts 147°
2026-04-29 18:22 14.67362 -17.06936 302 ft 2 kts 147°
2026-04-29 18:23 14.67375 -17.06944 302 ft 2 kts 147°
2026-04-29 18:23 14.67388 -17.06953 302 ft 2 kts 147°
2026-04-29 18:23 14.67400 -17.06961 301 ft 2 kts 147°
2026-04-29 18:23 14.67413 -17.06969 301 ft 2 kts 147°
2026-04-29 18:24 14.67426 -17.06976 301 ft 2 kts 166°
2026-04-29 18:24 14.67438 -17.06978 301 ft 0 kts 180°
2026-04-29 18:24 14.67442 -17.06978 301 ft 0 kts 182°
2026-04-29 18:26 14.67441 -17.06978 301 ft 1 kts 182°
2026-04-29 18:26 14.67400 -17.06979 302 ft 9 kts 181°
2026-04-29 18:27 14.67312 -17.06979 304 ft 15 kts 180°
2026-04-29 18:27 14.67176 -17.06978 306 ft 23 kts 179°
2026-04-29 18:27 14.67007 -17.06977 307 ft 24 kts 180°
2026-04-29 18:27 14.66844 -17.06975 310 ft 22 kts 179°
2026-04-29 18:28 14.66713 -17.06974 310 ft 10 kts 181°
2026-04-29 18:28 14.66667 -17.07039 309 ft 14 kts 271°
2026-04-29 18:28 14.66580 -17.07086 307 ft 18 kts 180°
2026-04-29 18:28 14.66427 -17.07084 305 ft 26 kts 180°
2026-04-29 18:29 14.66219 -17.07082 303 ft 33 kts 179°
2026-04-29 18:29 14.66058 -17.07082 301 ft 35 kts 179°
2026-04-29 18:29 14.65738 -17.07078 297 ft 31 kts 179°
2026-04-29 18:29 14.65571 -17.07077 293 ft 19 kts 184°
2026-04-29 18:30 14.65532 -17.07187 293 ft 18 kts 274°
2026-04-29 18:30 14.65594 -17.07268 294 ft 15 kts 357°
2026-04-29 18:30 14.65807 -17.07270 302 ft 61 kts 359°
2026-04-29 18:30 14.66489 -17.07277 307 ft 132 kts 359°
2026-04-29 18:31 14.67548 -17.07291 637 ft 162 kts 359°
2026-04-29 18:31 14.68682 -17.07255 1399 ft 167 kts
2026-04-29 18:31 14.69840 -17.07213 2172 ft 164 kts 359°
2026-04-29 18:31 14.71018 -17.07240 2615 ft 177 kts 357°
2026-04-29 18:32 14.72317 -17.07282 3012 ft 194 kts 358°
2026-04-29 18:32 14.75334 -17.07336 3989 ft 238 kts
2026-04-29 18:32 14.77051 -17.07338 4572 ft 256 kts 358°
2026-04-29 18:33 14.78889 -17.07346 5209 ft 272 kts
2026-04-29 18:33 14.80711 -17.06742 6023 ft 282 kts 32°
2026-04-29 18:33 14.82086 -17.05313 6905 ft 287 kts 59°
2026-04-29 18:33 14.82702 -17.03373 7775 ft 291 kts 86°
2026-04-29 18:34 14.82511 -17.01319 8583 ft 294 kts 99°
2026-04-29 18:34 14.82397 -16.99928 9102 ft 299 kts 93°
2026-04-29 18:34 14.82355 -16.97047 10222 ft 304 kts 91°
2026-04-29 18:34 14.82362 -16.94819 10701 ft 321 kts 90°
2026-04-29 18:35 14.82366 -16.92443 10943 ft 346 kts 93°
2026-04-29 18:35 14.81806 -16.89940 10876 ft 373 kts 115°
2026-04-29 18:35 14.80340 -16.87673 10920 ft 383 kts 135°
2026-04-29 18:35 14.78152 -16.86115 11719 ft 379 kts 157°
2026-04-29 18:36 14.75647 -16.85442 12508 ft 375 kts 176°
2026-04-29 18:36 14.73025 -16.85673 13084 ft 377 kts 196°
2026-04-29 18:36 14.70561 -16.86579 13671 ft 379 kts 198°
2026-04-29 18:36 14.67892 -16.86859 14202 ft 388 kts 178°
2026-04-29 18:37 14.65187 -16.86647 14775 ft 391 kts 180°
2026-04-29 18:37 14.62410 -16.86594 14934 ft 398 kts 180°
2026-04-29 18:37 14.59679 -16.86565 14872 ft 392 kts 181°
2026-04-29 18:37 14.56928 -16.86540 14949 ft 392 kts 181°
2026-04-29 18:38 14.54212 -16.86513 14879 ft 390 kts 181°
2026-04-29 18:38 14.51465 -16.86487 14913 ft 390 kts 181°
2026-04-29 18:38 14.48773 -16.86463 14912 ft 391 kts 181°
2026-04-29 18:38 14.46010 -16.86437 14877 ft 390 kts 181°
2026-04-29 18:39 14.43317 -16.86411 14929 ft 391 kts 181°
2026-04-29 18:39 14.40578 -16.86385 14862 ft 391 kts 181°
2026-04-29 18:39 14.37837 -16.86360 14870 ft 390 kts 180°
2026-04-29 18:39 14.35105 -16.86334 14889 ft 391 kts 180°
2026-04-29 18:40 14.32391 -16.86308 14892 ft 390 kts 180°
2026-04-29 18:40 14.29674 -16.86282 14898 ft 391 kts 181°
2026-04-29 18:40 14.26923 -16.86256 14872 ft 391 kts 181°
2026-04-29 18:40 14.24201 -16.86229 14887 ft 390 kts 181°
2026-04-29 18:41 14.16043 -16.86152 14883 ft 391 kts 180°
2026-04-29 18:41 14.13306 -16.86126 14879 ft 391 kts 181°
2026-04-29 18:42 14.10594 -16.86100 14902 ft 391 kts 180°
2026-04-29 18:42 14.07842 -16.86073 14891 ft 391 kts 180°
2026-04-29 18:42 14.05121 -16.86048 14868 ft 391 kts 180°
2026-04-29 18:42 14.02393 -16.86006 14873 ft 392 kts 178°
2026-04-29 18:43 13.99701 -16.85473 14845 ft 393 kts 163°
2026-04-29 18:43 13.97073 -16.84623 14905 ft 394 kts 164°
2026-04-29 18:43 13.94447 -16.83817 14857 ft 394 kts 165°
2026-04-29 18:43 13.91807 -16.83021 14881 ft 393 kts 165°
2026-04-29 18:44 13.89192 -16.82240 14893 ft 393 kts 165°
2026-04-29 18:44 13.86571 -16.81460 14786 ft 383 kts 165°
2026-04-29 18:44 13.84054 -16.80711 14475 ft 371 kts 165°
2026-04-29 18:44 13.81600 -16.79982 14256 ft 359 kts 165°
2026-04-29 18:45 13.79228 -16.79277 14014 ft 349 kts 165°
2026-04-29 18:45 13.76895 -16.78583 13803 ft 343 kts 165°
2026-04-29 18:45 13.74607 -16.77904 13543 ft 342 kts 165°
2026-04-29 18:45 13.72326 -16.77228 13043 ft 346 kts 165°
2026-04-29 18:46 13.69993 -16.76536 12569 ft 344 kts 165°
2026-04-29 18:46 13.67696 -16.75855 12084 ft 341 kts 165°
2026-04-29 18:46 13.65436 -16.75185 11614 ft 338 kts 164°
2026-04-29 18:46 13.63192 -16.74520 11198 ft 335 kts 164°
2026-04-29 18:47 13.60950 -16.73856 10797 ft 331 kts 164°
2026-04-29 18:47 13.58741 -16.73201 10399 ft 327 kts 164°
2026-04-29 18:47 13.56585 -16.72563 10172 ft 318 kts 163°
2026-04-29 18:47 13.54479 -16.71938 10054 ft 308 kts 163°
2026-04-29 18:48 13.52466 -16.71341 9930 ft 288 kts 164°
2026-04-29 18:48 13.50603 -16.70791 9838 ft 269 kts 163°
2026-04-29 18:48 13.48830 -16.70266 9699 ft 265 kts 163°
2026-04-29 18:48 13.47033 -16.69735 9392 ft 267 kts 163°
2026-04-29 18:49 13.45216 -16.69196 8871 ft 276 kts 163°
2026-04-29 18:49 13.43379 -16.68654 8520 ft 276 kts 162°
2026-04-29 18:49 13.41517 -16.68101 8226 ft 275 kts 162°
2026-04-29 18:49 13.39691 -16.67562 7921 ft 274 kts 162°
2026-04-29 18:50 13.37848 -16.67017 7627 ft 273 kts 162°
2026-04-29 18:50 13.36026 -16.66462 7321 ft 272 kts 159°
2026-04-29 18:50 13.34464 -16.65417 6977 ft 269 kts 131°
2026-04-29 18:50 13.33540 -16.63784 6655 ft 266 kts 105°
2026-04-29 18:51 13.33130 -16.61927 6364 ft 265 kts 102°
2026-04-29 18:51 13.32691 -16.60112 6213 ft 257 kts 103°
2026-04-29 18:51 13.32269 -16.58393 6162 ft 241 kts 103°
2026-04-29 18:51 13.31869 -16.56779 6059 ft 228 kts 103°
2026-04-29 18:52 13.31480 -16.55207 5803 ft 227 kts 103°
2026-04-29 18:52 13.31092 -16.53644 5601 ft 226 kts 103°
2026-04-29 18:52 13.30704 -16.52080 5397 ft 226 kts 102°
2026-04-29 18:52 13.30316 -16.50523 5196 ft 225 kts 102°
2026-04-29 18:53 13.29928 -16.48959 4991 ft 224 kts 102°
2026-04-29 18:53 13.29543 -16.47417 4771 ft 224 kts 104°
2026-04-29 18:53 13.28762 -16.46032 4498 ft 230 kts 135°
2026-04-29 18:53 13.27339 -16.45281 4254 ft 234 kts 169°
2026-04-29 18:54 13.25747 -16.45414 4022 ft 233 kts 202°
2026-04-29 18:54 13.24435 -16.46385 3643 ft 232 kts 231°
2026-04-29 18:54 13.23334 -16.47596 3340 ft 231 kts 224°
2026-04-29 18:54 13.22324 -16.48832 3140 ft 228 kts 247°
2026-04-29 18:55 13.22072 -16.50401 2920 ft 222 kts 280°
2026-04-29 18:55 13.22467 -16.51885 2735 ft 215 kts 305°
2026-04-29 18:55 13.23429 -16.53030 2417 ft 204 kts 314°
2026-04-29 18:55 13.24315 -16.54051 2383 ft 182 kts 313°
2026-04-29 18:56 13.25132 -16.55004 2158 ft 174 kts 313°
2026-04-29 18:56 13.25915 -16.55924 1926 ft 169 kts 313°
2026-04-29 18:56 13.26666 -16.56810 1918 ft 155 kts 313°
2026-04-29 18:56 13.27338 -16.57602 1689 ft 141 kts 313°
2026-04-29 18:57 13.27958 -16.58334 1495 ft 133 kts 313°
2026-04-29 18:57 13.28570 -16.59054 1316 ft 133 kts 312°
2026-04-29 18:57 13.29179 -16.59772 1143 ft 133 kts 311°
2026-04-29 18:57 13.29794 -16.60494 940 ft 133 kts 311°
2026-04-29 18:58 13.30411 -16.61207 790 ft 134 kts 311°
2026-04-29 18:58 13.31039 -16.61927 623 ft 133 kts 310°
2026-04-29 18:58 13.31636 -16.62654 478 ft 134 kts 309°
2026-04-29 18:58 13.32253 -16.63391 259 ft 134 kts 308°
2026-04-29 18:59 13.32857 -16.64111 105 ft 134 kts 308°
2026-04-29 18:59 13.33329 -16.64685 102 ft 62 kts 309°
2026-04-29 18:59 13.33530 -16.64921 103 ft 42 kts 311°
2026-04-29 18:59 13.33718 -16.65147 105 ft 41 kts 310°
2026-04-29 19:00 13.33901 -16.65369 104 ft 41 kts 309°
2026-04-29 19:00 13.34055 -16.65551 102 ft 14 kts 310°
2026-04-29 19:00 13.34148 -16.65558 103 ft 16 kts 26°
2026-04-29 19:00 13.34205 -16.65473 105 ft 14 kts 99°
2026-04-29 19:01 13.34157 -16.65396 107 ft 12 kts 131°
2026-04-29 19:01 13.34098 -16.65329 107 ft 12 kts 129°
2026-04-29 19:01 13.34115 -16.65257 108 ft 11 kts 47°
2026-04-29 19:01 13.34163 -16.65208 108 ft 6 kts 59°
2026-04-29 19:02 13.34148 -16.65171 108 ft 6 kts 133°
2026-04-29 19:02 13.34129 -16.65150 108 ft 6 kts 131°
2026-04-29 19:02 13.34119 -16.65138 108 ft 0 kts 131°